(146183) = 2000 SK327

Discovered at Haleakala on 2000-09-29 by NEAT.

Orbit

Orbit type: Main Belt

Note: WebGL enabled browser required.

epoch2024-03-31.0
epoch JD2460400.5
perihelion date2023-07-23.84017
perihelion JD2460149.34017
argument of perihelion (°)261.07100
ascending node (°)150.51458
inclination (°)13.89011
eccentricity0.3049591
perihelion distance (AU)2.1977121
Tisserand w.r.t. Jupiter3.1
ΔV w.r.t. Earth (km/sec)10.3
semimajor axis (AU)3.1619896
mean anomaly (°)44.02642
mean daily motion (°/day)0.17529240
aphelion distance (AU)4.126
period (years)5.62
P-vector [x]0.60712643
P-vector [y]0.79014341
P-vector [z]0.08408856
Q-vector [x]-0.78577104
Q-vector [y]0.58126922
Q-vector [z]0.21140003
absolute magnitude15.36
phase slope0.15
uncertainty0
referenceMPEC 2024-C145
observations used716
oppositions16
arc length (days)8565
first opposition used2000
last opposition used2024
residual rms (arc-secs)0.71
perturbers coarse indicatorM-v
perturbers precise indicator003Ek
first observation date used2000-08-31.0
last observation date used2024-02-12.0
computer nameMPCLINUX
JD of orbit computation2456789.387472
perihelion JD uncertainty (days)8.2279E-05
argument of perihelion uncertainty (°)2.7180E-05
ascending node uncertainty (°)2.0840E-05
inclination uncertainty (°)7.9633E-06
eccentricity uncertainty 4.5333E-08
perihelion distance uncertainty (AU)1.3958E-07
Minimum Orbit Intersection Distances (in AU)
for orbit epoch: 2460200.5, reference: E2024-CE5
Mercury1.89171
Venus1.49876
Earth1.25704
Mars0.83759
Jupiter1.64425
Saturn5.88058
Uranus14.7339
Neptune26.6415

Observations

726 total observations over interval: 2000 08 31.39420 – 2024 02 12.374781
These data are available for download (format description).

Date (UT) J2000 RA J2000 Dec Magn Location Ref
2000 08 31.39420 01 07 52.69 -04 30 43.5 18.4   704 – Lincoln Laboratory ETS, New Mexico MPS 30171
2000 08 31.40733 01 07 52.62 -04 30 50.6 19.3   704 – Lincoln Laboratory ETS, New Mexico MPS 30171
2000 08 31.42157 01 07 52.60 -04 30 59.7 18.9   704 – Lincoln Laboratory ETS, New Mexico MPS 30171
2000 08 31.43480 01 07 52.53 -04 31 07.5 18.6   704 – Lincoln Laboratory ETS, New Mexico MPS 30171
2000 08 31.44837 01 07 52.39 -04 31 15.4 19.4   704 – Lincoln Laboratory ETS, New Mexico MPS 30171
2000 09 10.34313 01 06 21.88 -06 15 50.3 18.3 R 699 – Lowell Observatory-LONEOS MPS 30171
2000 09 10.36179 01 06 21.45 -06 16 01.8   699 – Lowell Observatory-LONEOS MPS 30171
2000 09 10.38034 01 06 21.16 -06 16 15.2   699 – Lowell Observatory-LONEOS MPS 30171
2000 09 10.39892 01 06 20.80 -06 16 27.3   699 – Lowell Observatory-LONEOS MPS 30171
2000 09 23.33532 01 01 09.15 -08 45 23.6 18.0 R 699 – Lowell Observatory-LONEOS MPS 30171
2000 09 23.35076 01 01 08.66 -08 45 33.6   699 – Lowell Observatory-LONEOS MPS 30171
2000 09 23.36620 01 01 08.13 -08 45 45.1   699 – Lowell Observatory-LONEOS MPS 30171
2000 09 23.38161 01 01 07.60 -08 45 55.7   699 – Lowell Observatory-LONEOS MPS 30171
2000 09 26.340810 00 59 31.771 -09 19 54.65 18.49 V 645 – Apache Point-Sloan Digital Sky Survey MPS 79791
2000 09 26.344282 00 59 31.647 -09 19 56.97 19.17   645 – Apache Point-Sloan Digital Sky Survey MPS 79791
2000 09 27.392130 00 58 55.926 -09 31 50.03 18.37 V 645 – Apache Point-Sloan Digital Sky Survey MPS 79791
2000 09 27.395602 00 58 55.803 -09 31 52.35 18.96   645 – Apache Point-Sloan Digital Sky Survey MPS 79791
2000 09 29.59641 00 57 38.59 -09 56 29.3 19.2   608 – Haleakala-AMOS MPS 21425
2000 09 29.60657 00 57 38.21 -09 56 36.4 19.3   608 – Haleakala-AMOS MPS 21425
2000 09 29.61676 00 57 37.82 -09 56 43.7 19.2   608 – Haleakala-AMOS MPS 21425
2000 10 01.25058 00 56 39.24 -10 14 37.1 18.3   704 – Lincoln Laboratory ETS, New Mexico MPS 21425
2000 10 01.26658 00 56 38.60 -10 14 47.3 17.8   704 – Lincoln Laboratory ETS, New Mexico MPS 21425
2000 10 01.28193 00 56 38.02 -10 14 56.9 18.1   704 – Lincoln Laboratory ETS, New Mexico MPS 21425
2000 10 01.29701 00 56 37.46 -10 15 06.8 18.8   704 – Lincoln Laboratory ETS, New Mexico MPS 21425
2000 10 01.31291 00 56 36.82 -10 15 18.1 18.3   704 – Lincoln Laboratory ETS, New Mexico MPS 21425
2000 10 27.22208 00 41 30.86 -13 41 37.1 18.7   704 – Lincoln Laboratory ETS, New Mexico MPS 30171
2000 10 27.23609 00 41 30.47 -13 41 41.8 18.6   704 – Lincoln Laboratory ETS, New Mexico MPS 30171
2000 10 27.25107 00 41 30.05 -13 41 46.7 19.0   704 – Lincoln Laboratory ETS, New Mexico MPS 30171
2000 10 27.26523 00 41 29.61 -13 41 48.3 19.3   704 – Lincoln Laboratory ETS, New Mexico MPS 30171
2000 10 27.27999 00 41 29.23 -13 41 52.8 19.4   704 – Lincoln Laboratory ETS, New Mexico MPS 30171
2002 02 07.32301 10 40 29.92 +08 52 34.8 19.2   704 – Lincoln Laboratory ETS, New Mexico MPS 49186
2002 02 07.33745 10 40 29.30 +08 52 41.0 20.1   704 – Lincoln Laboratory ETS, New Mexico MPS 49186
2002 02 07.35185 10 40 28.71 +08 52 49.0 19.6   704 – Lincoln Laboratory ETS, New Mexico MPS 49186
2002 02 07.36627 10 40 28.12 +08 52 56.4 19.9   704 – Lincoln Laboratory ETS, New Mexico MPS 49186
2002 02 07.38104 10 40 27.45 +08 53 03.6 19.9   704 – Lincoln Laboratory ETS, New Mexico MPS 49186
2002 02 10.31630 10 38 27.07 +09 17 28.3 19.3   704 – Lincoln Laboratory ETS, New Mexico MPS 54748
2002 02 10.33046 10 38 26.46 +09 17 35.8 20.0   704 – Lincoln Laboratory ETS, New Mexico MPS 54748
2002 02 10.34464 10 38 25.86 +09 17 42.5 20.1   704 – Lincoln Laboratory ETS, New Mexico MPS 54748
2002 02 10.35880 10 38 25.23 +09 17 48.9 19.9   704 – Lincoln Laboratory ETS, New Mexico MPS 54748
2002 02 10.37297 10 38 24.60 +09 17 57.6 20.4   704 – Lincoln Laboratory ETS, New Mexico MPS 54748
2002 02 12.30654 10 37 02.30 +09 34 18.2 20.4 V 333 – Desert Eagle Observatory MPS 49186
2002 02 12.33066 10 37 01.20 +09 34 30.2 20.1   704 – Lincoln Laboratory ETS, New Mexico MPS 52083
2002 02 12.33919 10 37 00.80 +09 34 34.1 20.2 V 333 – Desert Eagle Observatory MPS 49187
2002 02 12.34508 10 37 00.47 +09 34 36.1 19.9   704 – Lincoln Laboratory ETS, New Mexico MPS 52083
2002 02 12.36010 10 36 59.79 +09 34 44.4 19.8   704 – Lincoln Laboratory ETS, New Mexico MPS 52083
2002 02 12.37475 10 36 59.19 +09 34 51.8 19.8   704 – Lincoln Laboratory ETS, New Mexico MPS 52083
2002 02 12.37538 10 36 59.24 +09 34 52.8 19.3   704 – Lincoln Laboratory ETS, New Mexico MPS 52083
2002 02 12.37726 10 36 59.05 +09 34 54.8 20.4 V 333 – Desert Eagle Observatory MPS 49187
2002 02 12.39210 10 36 58.47 +09 35 00.9 19.4   704 – Lincoln Laboratory ETS, New Mexico MPS 52083
2002 02 12.42234 10 36 57.12 +09 35 15.6 19.9   704 – Lincoln Laboratory ETS, New Mexico MPS 52083
2002 02 12.43664 10 36 56.47 +09 35 23.5 19.7   704 – Lincoln Laboratory ETS, New Mexico MPS 52083
2002 02 13.24963 10 36 21.41 +09 42 18.2 19.8 V 291 – LPL/Spacewatch II MPS 52083
2002 02 13.26999 10 36 20.52 +09 42 28.7 19.7 V 291 – LPL/Spacewatch II MPS 52083
2002 02 13.29064 10 36 19.60 +09 42 39.2 20.1 V 291 – LPL/Spacewatch II MPS 52083
2002 02 13.34569 10 36 17.17 +09 43 06.5 19.8   704 – Lincoln Laboratory ETS, New Mexico MPS 52083
2002 02 13.36059 10 36 16.49 +09 43 13.8 19.8   704 – Lincoln Laboratory ETS, New Mexico MPS 52083
2002 02 13.37559 10 36 15.84 +09 43 21.8 19.8   704 – Lincoln Laboratory ETS, New Mexico MPS 52083
2002 02 16.34260 10 34 04.39 +10 08 46.5 19.4   644 – Palomar Mountain/NEAT MPS 52083
2002 02 16.41813 10 34 00.89 +10 09 25.5 19.7   644 – Palomar Mountain/NEAT MPS 52083
2002 02 16.48029 10 33 57.99 +10 09 57.3 19.7   644 – Palomar Mountain/NEAT MPS 52083
2002 02 19.39057 10 31 46.61 +10 34 55.6 19.7 V 691 – Steward Observatory, Kitt Peak-Spacewatch MPS 52083
2002 02 19.41206 10 31 45.60 +10 35 06.6 20.1 V 691 – Steward Observatory, Kitt Peak-Spacewatch MPS 52083
2002 02 19.43338 10 31 44.60 +10 35 18.0 19.5 V 691 – Steward Observatory, Kitt Peak-Spacewatch MPS 52083
2002 02 20.24307 10 31 07.98 +10 42 13.0 19.2   704 – Lincoln Laboratory ETS, New Mexico MPS 52083
2002 02 20.25681 10 31 07.34 +10 42 20.9 19.5   704 – Lincoln Laboratory ETS, New Mexico MPS 52083
2002 02 20.27056 10 31 06.67 +10 42 28.0 19.4   704 – Lincoln Laboratory ETS, New Mexico MPS 52083
2002 02 20.28448 10 31 05.98 +10 42 35.2 19.7   704 – Lincoln Laboratory ETS, New Mexico MPS 52083
2002 02 20.29823 10 31 05.38 +10 42 42.3 19.8   704 – Lincoln Laboratory ETS, New Mexico MPS 52083
2002 02 24.28094 10 28 03.50 +11 16 32.2 20.0   644 – Palomar Mountain/NEAT MPS 52083
2002 02 24.30210 10 28 02.51 +11 16 43.7 20.3   644 – Palomar Mountain/NEAT MPS 52083
2002 02 24.32440 10 28 01.48 +11 16 54.4 20.1   644 – Palomar Mountain/NEAT MPS 52083
2002 03 09.26272 10 18 37.83 +12 59 37.6 20.1   644 – Palomar Mountain/NEAT MPS 52083
2002 03 09.33663 10 18 34.74 +13 00 09.8 19.7   644 – Palomar Mountain/NEAT MPS 52083
2002 03 09.41152 10 18 31.64 +13 00 42.6 20.7   644 – Palomar Mountain/NEAT MPS 52083
2002 03 12.36652 10 16 36.24 +13 21 43.8 20.4   644 – Palomar Mountain/NEAT MPS 52083
2002 03 12.39333 10 16 35.22 +13 21 54.9 20.1   644 – Palomar Mountain/NEAT MPS 52083
2002 03 12.42920 10 16 33.81 +13 22 09.7 19.8   644 – Palomar Mountain/NEAT MPS 52083
2002 03 14.19307 10 15 28.75 +13 34 10.3 20.1   704 – Lincoln Laboratory ETS, New Mexico MPS 52083
2002 03 14.20602 10 15 28.25 +13 34 15.0 19.8   704 – Lincoln Laboratory ETS, New Mexico MPS 52083
2002 03 14.21904 10 15 27.78 +13 34 20.1 19.3   704 – Lincoln Laboratory ETS, New Mexico MPS 52083
2002 03 14.23205 10 15 27.27 +13 34 25.2 19.5   704 – Lincoln Laboratory ETS, New Mexico MPS 52083
2002 03 16.17967 10 14 18.35 +13 47 08.7 19.5   704 – Lincoln Laboratory ETS, New Mexico MPS 52083
2002 03 16.19236 10 14 17.95 +13 47 14.6 20.3   704 – Lincoln Laboratory ETS, New Mexico MPS 52083
2002 03 16.21789 10 14 16.96 +13 47 24.7 20.6   704 – Lincoln Laboratory ETS, New Mexico MPS 52083
2002 03 16.23077 10 14 16.57 +13 47 30.1 20.5   704 – Lincoln Laboratory ETS, New Mexico MPS 52083
2005 06 13.33528 20 42 02.99 -07 52 22.1 21.3 V 291 – LPL/Spacewatch II MPS 136462
